[[{"header":{"parameterUnit":"m.s-1","parameterCategory":2,"la1":30.2991,"la2":30.254,"lo1":-89.0895,"lo2":-89.0444,"dy":0.0017,"dx":0.0017,"nx":28,"ny":28,"refTime":"2023-08-06T21:00:00:Z","depth":"0","parameterNumber":2,"parameterNumberName":"U-component_of_CURRENTS"},"data":[0,0,0,0,0,0,0,0,0,0,0,0,0,0,0,0,0,0,0,0,0,0,0,0,0,0,0,0,0,0,0,0,0,0,0,0,0,0,0,0,0,0,0,0,0,0,0,0,0,0,0,0,0,0,0,0,0,0,0.1914,0.1915,0,0.2025,0.2026,0.2027,0.2014,0.2012,0.201,0.2008,0.1989,0.199,0.1991,0,0,0,0,0,0,0,0,0,0,0,0,0,0.181,0.1812,0.1913,0.1915,0.1916,0.2024,0.2026,0.2027,0.2014,0.2012,0.201,0.2008,0.1989,0.199,0.1991,0,0,0,0,0,0,0,0,0,0,0,0,0,0.1881,0.1812,0.1913,0.1923,0.1925,0.2024,0.2026,0.2028,0.2014,0.2012,0.2009,0.2007,0.1988,0.199,0.1992,0.2055,0,0,0.1997,0.1998,0,0,0,0,0,0,0,0,0.1877,0.1884,0.192,0.1923,0.1925,0.2003,0.1983,0.203,0.2015,0.198,0.2008,0.2005,0.1984,0.1986,0.2014,0.2054,0.2053,0.1997,0.1998,0.1999,0.1999,0,0,0,0,0,0,0,0.1872,0.188,0.1957,0.1922,0.1925,0.1963,0.1969,0.1993,0.1992,0.1983,0.1982,0.1996,0.1984,0.2012,0.2013,0.2053,0.1997,0.1998,0.1999,0.2,0.2105,0.2107,0,0,0,0,0,0,0.1856,0.1875,0.1953,0.196,0.1895,0.1967,0.1974,0.198,0.1995,0.1996,0.1998,0.1995,0.2011,0.2011,0.2012,0.204,0.1999,0.2,0.2001,0.2103,0.2106,0.2108,0,0,0,0,0,0,0.1853,0.1862,0.1949,0.1921,0.1935,0.197,0.1979,0.1984,0.2002,0.2009,0.2006,0.2009,0.2009,0.2009,0.2015,0.204,0.2001,0.2003,0.2101,0.2104,0.2107,0.2126,0,0,0,0,0,0,0.185,0.186,0.1878,0.192,0.1936,0.2008,0.1982,0.1988,0.2015,0.2012,0.2018,0.2014,0.2007,0.2013,0.2017,0.2042,0.2004,0.2099,0.2103,0.2106,0.2123,0.2129,0.2134,0,0,0,0,0,0.1846,0.1886,0.1878,0.1889,0.1953,0.201,0.2023,0.2039,0.2018,0.2042,0.2026,0.2013,0.2037,0.2015,0.202,0.2046,0.2097,0.2102,0.2105,0.2121,0.2128,0.2134,0,0,0,0,0,0,0.1875,0.189,0.1882,0.193,0.1963,0.2007,0.2039,0.2044,0.2058,0.2053,0.203,0.2028,0.204,0.205,0.2026,0.209,0.2069,0.2074,0.2079,0.2086,0.2092,0.2089,0.2005,0,0,0,0,0,0.1884,0.1914,0.1928,0.1981,0.1977,0.2004,0.2034,0.2052,0.2066,0.2071,0.2061,0.2063,0.207,0.2078,0.2087,0.2128,0.2132,0.2152,0.2158,0.2162,0.2166,0.2174,0.2179,0.2121,0.2121,0.2121,0,0,0.1932,0.1934,0.1964,0.1989,0.2004,0.2028,0.2014,0.2069,0.2101,0.2068,0.2088,0.2077,0.2082,0.2112,0.2123,0.2118,0.219,0.2167,0.217,0.2172,0.2178,0.2184,0.2188,0.2123,0.2123,0.2122,0,0,0.2002,0.2009,0.2027,0.2052,0.2076,0.2082,0.2089,0.2116,0.2127,0.2164,0.2132,0.2128,0.2158,0.2154,0.216,0.221,0.2209,0.2225,0.226,0.2267,0.2271,0.2275,0.2315,0.2322,0.2238,0.2238,0.2238,0,0.2039,0.2056,0.2055,0.207,0.2087,0.2091,0.2111,0.2148,0.2184,0.2191,0.2172,0.2191,0.218,0.2205,0.2213,0.222,0.2235,0.2227,0.2271,0.2275,0.2278,0.2319,0.2326,0.224,0.2239,0.2239,0.2239,0,0.2112,0.2122,0.2138,0.2132,0.216,0.2196,0.2211,0.2235,0.2231,0.2259,0.2278,0.2265,0.227,0.2274,0.2255,0.2282,0.2291,0.2264,0.2246,0.2284,0.2326,0.2333,0.2242,0.2241,0.2241,0.224,0,0,0.2148,0.2172,0.2168,0.2161,0.2189,0.2211,0.2254,0.2274,0.229,0.2332,0.2348,0.2356,0.2343,0.2348,0.2327,0.2333,0.2363,0.2311,0.2311,0.2338,0.2409,0.2383,0.2388,0.2338,0.2339,0.2339,0.2438,0,0.2168,0.2186,0.2202,0.223,0.222,0.2246,0.2274,0.2323,0.2342,0.2368,0.2386,0.2399,0.2379,0.2369,0.2377,0.2346,0.2379,0.2341,0.238,0.2382,0.2341,0.2394,0.2263,0.2335,0.2445,0.2446,0.2447,0,0.2184,0.2185,0.2197,0.2218,0.2213,0.2244,0.2257,0.2301,0.236,0.2379,0.2418,0.2436,0.2457,0.2425,0.2446,0.2422,0.2428,0.2419,0.2422,0.2391,0.2368,0.2311,0.2344,0.2255,0.2457,0.2457,0.2456,0,0.2138,0.2169,0.2161,0.2183,0.2216,0.2224,0.2242,0.2295,0.2315,0.2388,0.2405,0.246,0.2467,0.2484,0.2486,0.2465,0.2509,0.2479,0.2484,0.2484,0.2378,0.2366,0.231,0.2518,0.2518,0.2518,0.2518,0,0.2118,0.2122,0.214,0.2141,0.2144,0.2189,0.2196,0.2237,0.2284,0.231,0.2398,0.242,0.2475,0.2516,0.2517,0.2528,0.2546,0.2506,0.2504,0.2386,0.2374,0.2294,0.2288,0.2522,0.2521,0.252,0.2519,0,0.2074,0.209,0.2084,0.2104,0.2114,0.2118,0.2155,0.2166,0.2222,0.2256,0.2282,0.2392,0.246,0.2531,0.2569,0.2557,0.2509,0.258,0.246,0.2441,0.2341,0.2342,0.2316,0.2261,0.2603,0.2603,0.2603,0,0.2047,0.2038,0.204,0.2038,0.2045,0.2059,0.2063,0.2119,0.2134,0.2225,0.2235,0.2353,0.2408,0.2495,0.2535,0.2592,0.2523,0.2484,0.2412,0.2332,0.2332,0.2301,0.2254,0.23,0.2298,0.2295,0.2294,0,0.1993,0.1994,0.1988,0.1973,0.1971,0.1977,0.1994,0.1992,0.2057,0.2086,0.2138,0.2197,0.2338,0.2351,0.2458,0.2463,0.2362,0.2443,0.2369,0.2108,0.2059,0.2005,0.2273,0.2275,0.2277,0.2278,0.2279,0.228,0.1939,0.1936,0.1917,0.1903,0.1902,0.1887,0.1858,0.1885,0.1887,0.1906,0.2011,0.2034,0.2127,0.227,0.228,0.2211,0.2286,0.2113,0.2134,0.2121,0.2012,0.2265,0.2249,0.2251,0.2252,0.2254,0.2255,0,0.1842,0.1864,0.1855,0.1823,0.1778,0.1809,0.1797,0.175,0.1714,0.1764,0.179,0.1821,0.185,0.1921,0.193,0.187,0.1826,0.1829,0.172,0.1699,0.1913,0.1838,0.1717,0.1717,0.1717,0.1718,0.1718,0.1718,0.1798,0.1768,0.1772,0.1686,0.1668,0.1584,0.1553,0.1511,0.1512,0.147,0.1458,0.1518,0.1605,0.1641,0.1581,0.1569,0.1508,0.1489,0.1534,0.1634,0.166,0.1685,0.1607,0.144,0.144,0.121,0.1208,0.1207]},{"header":{"parameterUnit":"m.s-1","parameterCategory":2,"la1":30.2991,"la2":30.254,"lo1":-89.0895,"lo2":-89.0444,"dy":0.0017,"dx":0.0017,"nx":28,"ny":28,"refTime":"2023-08-06T21:00:00:Z","depth":"0","parameterNumber":3,"parameterNumberName":"V-component_of_CURRENTS"},"data":[0,0,0,0,0,0,0,0,0,0,0,0,0,0,0,0,0,0,0,0,0,0,0,0,0,0,0,0,0,0,0,0,0,0,0,0,0,0,0,0,0,0,0,0,0,0,0,0,0,0,0,0,0,0,0,0,0,0,0.0536,0.0536,0,0.0555,0.0556,0.0556,0.0502,0.05,0.0498,0.0496,0.0572,0.0576,0.058,0,0,0,0,0,0,0,0,0,0,0,0,0,0.0473,0.0475,0.0536,0.0536,0.0536,0.0555,0.0556,0.0557,0.0502,0.05,0.0497,0.0495,0.0571,0.0576,0.0581,0,0,0,0,0,0,0,0,0,0,0,0,0,0.0502,0.0475,0.0536,0.0508,0.0505,0.0555,0.0556,0.0557,0.0503,0.05,0.0496,0.0493,0.057,0.0575,0.0581,0.0681,0,0,0.06,0.0602,0,0,0,0,0,0,0,0,0.05,0.0504,0.0512,0.051,0.0507,0.0519,0.0561,0.06,0.0503,0.0508,0.0496,0.0492,0.0559,0.0566,0.0582,0.0685,0.0688,0.06,0.0604,0.0606,0.0608,0,0,0,0,0,0,0,0.0498,0.0503,0.0548,0.0512,0.0509,0.0501,0.0502,0.0569,0.0556,0.0508,0.0503,0.0499,0.0558,0.0576,0.0584,0.0689,0.06,0.0605,0.0609,0.0611,0.0775,0.0775,0,0,0,0,0,0,0.049,0.0502,0.0547,0.0548,0.049,0.0504,0.0505,0.0522,0.0554,0.0554,0.0501,0.0496,0.0568,0.0577,0.0586,0.0614,0.0606,0.0612,0.0615,0.0774,0.0775,0.0776,0,0,0,0,0,0,0.0489,0.0495,0.0547,0.052,0.0525,0.0508,0.0527,0.0524,0.0531,0.0547,0.0549,0.0509,0.0566,0.0578,0.0608,0.0619,0.0615,0.062,0.0773,0.0774,0.0775,0.0729,0,0,0,0,0,0,0.0487,0.0495,0.0501,0.0521,0.0527,0.0576,0.053,0.0526,0.0532,0.0525,0.0556,0.056,0.0564,0.0598,0.0613,0.0627,0.0625,0.0772,0.0774,0.0775,0.0729,0.0728,0.0727,0,0,0,0,0,0.0486,0.0511,0.0502,0.0506,0.0538,0.0578,0.0582,0.056,0.0535,0.0553,0.0542,0.0558,0.0618,0.0604,0.0622,0.0637,0.0771,0.0773,0.0775,0.073,0.0728,0.0727,0,0,0,0,0,0,0.0485,0.0508,0.0498,0.0528,0.0548,0.0566,0.0569,0.0571,0.0582,0.0568,0.0575,0.058,0.0609,0.0641,0.0625,0.0689,0.0698,0.0703,0.0657,0.0657,0.0656,0.0662,0.063,0,0,0,0,0,0.049,0.0513,0.0535,0.0556,0.0562,0.0571,0.0581,0.0582,0.0593,0.0594,0.0608,0.0623,0.0639,0.0656,0.0687,0.074,0.0739,0.0761,0.0759,0.0758,0.0776,0.0754,0.0752,0.0781,0.0781,0.0781,0,0,0.05,0.0508,0.0524,0.0556,0.0561,0.0589,0.057,0.0597,0.0612,0.0608,0.0625,0.063,0.0652,0.0679,0.0698,0.0701,0.0748,0.076,0.0758,0.0778,0.0756,0.0752,0.0749,0.0782,0.0782,0.0782,0,0,0.052,0.0532,0.0552,0.0577,0.0593,0.0605,0.0615,0.0644,0.0638,0.0674,0.0648,0.0657,0.071,0.0706,0.0714,0.0744,0.0742,0.0755,0.0758,0.0735,0.0732,0.0729,0.0709,0.0705,0.0754,0.0754,0.0754,0,0.0511,0.0554,0.0565,0.0589,0.0604,0.0612,0.0644,0.0657,0.0689,0.0692,0.0674,0.0712,0.0724,0.0738,0.0721,0.0742,0.0721,0.0752,0.073,0.0727,0.0725,0.0706,0.0702,0.0752,0.0752,0.0752,0.0752,0,0.0553,0.0584,0.0598,0.0624,0.065,0.0686,0.0702,0.072,0.0716,0.0726,0.0743,0.0745,0.0766,0.0762,0.0744,0.0741,0.0727,0.0724,0.0724,0.0719,0.0699,0.0696,0.0749,0.0749,0.075,0.0751,0,0,0.0547,0.0608,0.0614,0.0633,0.0677,0.0703,0.0725,0.0752,0.0758,0.0778,0.0788,0.0791,0.0789,0.0798,0.0782,0.0753,0.07,0.0721,0.0721,0.0686,0.0635,0.0624,0.0619,0.0669,0.0669,0.0669,0.062,0,0.0566,0.0608,0.0644,0.0697,0.0726,0.0749,0.0767,0.0793,0.08,0.0815,0.0812,0.0826,0.0803,0.0801,0.077,0.0726,0.0691,0.0713,0.0661,0.0661,0.0637,0.0615,0.0651,0.061,0.0617,0.0616,0.0616,0,0.0596,0.0625,0.0669,0.0727,0.0739,0.0768,0.0795,0.082,0.0839,0.0844,0.0859,0.0863,0.085,0.082,0.0755,0.076,0.0698,0.0654,0.0651,0.0662,0.0644,0.0623,0.0604,0.0582,0.061,0.0611,0.0611,0,0.0579,0.0647,0.0673,0.0699,0.0761,0.0775,0.0798,0.0824,0.0839,0.0866,0.0881,0.088,0.0879,0.0814,0.0748,0.0736,0.0658,0.0641,0.0577,0.0576,0.0614,0.0616,0.0561,0.0582,0.0582,0.0583,0.0583,0,0.0589,0.0622,0.0666,0.0691,0.0723,0.0769,0.0795,0.0816,0.085,0.0871,0.0894,0.091,0.0868,0.0832,0.0756,0.0666,0.0673,0.0581,0.0563,0.0598,0.06,0.059,0.0565,0.0581,0.0581,0.0581,0.0582,0,0.0575,0.0602,0.0646,0.0702,0.0717,0.0737,0.0791,0.0813,0.0845,0.0875,0.0889,0.092,0.0889,0.0844,0.0748,0.0681,0.0582,0.0557,0.0607,0.0595,0.0515,0.0485,0.0374,0.0428,0.0482,0.0482,0.0481,0,0.0564,0.0587,0.0638,0.0652,0.0677,0.0715,0.0741,0.0795,0.0823,0.0878,0.089,0.09,0.0909,0.08,0.0711,0.0607,0.0565,0.0541,0.0533,0.0516,0.047,0.0415,0.0467,0.0558,0.0559,0.0559,0.0559,0,0.0563,0.0576,0.0604,0.0627,0.0654,0.0699,0.0742,0.0765,0.0828,0.0864,0.0899,0.0919,0.0865,0.0809,0.0695,0.0621,0.0546,0.0539,0.0512,0.0518,0.0466,0.0509,0.0584,0.056,0.056,0.056,0.056,0.056,0.0549,0.0557,0.0582,0.0603,0.0637,0.0682,0.0709,0.0767,0.082,0.0892,0.0902,0.0956,0.0901,0.0776,0.0679,0.0559,0.0533,0.0503,0.0466,0.0408,0.047,0.0546,0.0507,0.0506,0.0506,0.0506,0.0505,0,0.0529,0.0542,0.0559,0.0589,0.0619,0.0648,0.0711,0.0746,0.0808,0.0908,0.0953,0.1003,0.09,0.0806,0.0635,0.0517,0.0501,0.0452,0.0406,0.0467,0.0531,0.0548,0.053,0.053,0.053,0.053,0.053,0.053,0.0512,0.0521,0.0531,0.0563,0.0589,0.0631,0.0665,0.0729,0.0811,0.095,0.1048,0.1134,0.1122,0.0717,0.0515,0.0472,0.0434,0.0332,0.0353,0.0409,0.0412,0.0415,0.0426,0.0382,0.0382,0.0347,0.0347,0.0346]}],[{"header":{"parameterUnit":"m.s-1","parameterCategory":2,"la1":30.2991,"la2":30.254,"lo1":-89.0895,"lo2":-89.0444,"dy":0.0017,"dx":0.0017,"nx":28,"ny":28,"refTime":"2023-08-06T21:00:00:Z","depth":"2","parameterNumber":2,"parameterNumberName":"U-component_of_CURRENTS"},"data":[0,0,0,0,0,0,0,0,0,0,0,0,0,0,0,0,0,0,0,0,0,0,0,0,0,0,0,0,0,0,0,0,0,0,0,0,0,0,0,0,0,0,0,0,0,0,0,0,0,0,0,0,0,0,0,0,0,0,0.0929,0.0932,0,0.092,0.0917,0.0914,0.0983,0.0988,0.0993,0.0998,0.1135,0.1134,0.1133,0,0,0,0,0,0,0,0,0,0,0,0,0,0.0843,0.0842,0.0929,0.0932,0.0935,0.092,0.0917,0.0913,0.0982,0.0988,0.0994,0.1,0.1135,0.1134,0.1133,0,0,0,0,0,0,0,0,0,0,0,0,0,0.0829,0.0842,0.0929,0.0993,0.1001,0.0921,0.0916,0.0912,0.098,0.0988,0.0996,0.1003,0.1136,0.1134,0.1133,0.0969,0,0,0.1128,0.1127,0,0,0,0,0,0,0,0,0.083,0.0827,0.0981,0.0989,0.0998,0.0991,0.0939,0.0951,0.0978,0.0951,0.0998,0.1007,0.1117,0.1117,0.1047,0.0975,0.0981,0.1127,0.1126,0.1126,0.1125,0,0,0,0,0,0,0,0.0831,0.0828,0.089,0.0984,0.0995,0.097,0.0973,0.0937,0.0967,0.0954,0.0968,0.102,0.112,0.1048,0.1052,0.0983,0.1127,0.1126,0.1125,0.1124,0.1064,0.1064,0,0,0,0,0,0,0.0901,0.0829,0.0891,0.0893,0.097,0.0968,0.097,0.0957,0.0965,0.0983,0.1013,0.1024,0.1047,0.1054,0.1058,0.1201,0.1126,0.1124,0.1123,0.1065,0.1064,0.1064,0,0,0,0,0,0,0.0898,0.0903,0.0892,0.0893,0.0895,0.0966,0.0947,0.0954,0.0968,0.1015,0.1029,0.1039,0.1053,0.106,0.1144,0.1196,0.1123,0.1122,0.1066,0.1065,0.1064,0.1274,0,0,0,0,0,0,0.0893,0.0899,0.0904,0.0895,0.0899,0.0922,0.0944,0.0949,0.1001,0.1015,0.1039,0.1054,0.106,0.1147,0.1143,0.1193,0.1121,0.1066,0.1065,0.1064,0.1268,0.1281,0.1291,0,0,0,0,0,0.0889,0.091,0.0901,0.0913,0.0903,0.0927,0.0921,0.0975,0.0996,0.1007,0.106,0.1058,0.1135,0.1147,0.1141,0.1192,0.1067,0.1066,0.1064,0.1263,0.1278,0.1291,0,0,0,0,0,0,0.088,0.092,0.0913,0.0942,0.0965,0.0955,0.0982,0.0993,0.1014,0.103,0.1067,0.1085,0.1179,0.1122,0.1134,0.1157,0.1089,0.1087,0.1242,0.1255,0.1267,0.1226,0.1119,0,0,0,0,0,0.0873,0.0927,0.0921,0.0972,0.0957,0.0952,0.0969,0.0983,0.1018,0.1032,0.1099,0.1114,0.1132,0.1161,0.1165,0.1168,0.11,0.1181,0.1193,0.1204,0.1158,0.1134,0.1142,0.1059,0.1059,0.1059,0,0,0.0883,0.0941,0.0956,0.098,0.0971,0.0963,0.0974,0.1001,0.1012,0.1041,0.1121,0.1176,0.1145,0.1197,0.1224,0.1183,0.1194,0.1202,0.1214,0.116,0.1134,0.1143,0.115,0.1058,0.1058,0.1059,0,0,0.0938,0.0958,0.0973,0.0961,0.0992,0.1015,0.1042,0.1048,0.1058,0.1102,0.1157,0.126,0.1258,0.1298,0.129,0.1336,0.1272,0.1329,0.1354,0.1336,0.1343,0.1349,0.1304,0.1304,0.1321,0.1321,0.1321,0,0.0977,0.0968,0.099,0.0967,0.0992,0.1051,0.1027,0.1019,0.1091,0.1081,0.1162,0.1234,0.1288,0.1321,0.1382,0.1373,0.1327,0.1333,0.1358,0.1362,0.1364,0.1316,0.1313,0.1331,0.133,0.1329,0.1328,0,0.088,0.0959,0.0977,0.0993,0.1003,0.1028,0.1016,0.1065,0.1132,0.1117,0.1194,0.1298,0.1329,0.1393,0.1416,0.1462,0.1417,0.1404,0.1344,0.1386,0.1331,0.1325,0.1345,0.1342,0.1339,0.1336,0,0,0.0907,0.0913,0.0968,0.0969,0.101,0.1018,0.1045,0.1057,0.1069,0.1147,0.1159,0.1291,0.1348,0.1342,0.1432,0.1465,0.1529,0.1457,0.1452,0.1447,0.1463,0.1334,0.1314,0.1537,0.1536,0.1535,0.1432,0,0.0895,0.0874,0.0909,0.0989,0.0952,0.101,0.1031,0.1023,0.1089,0.1126,0.1159,0.125,0.1311,0.1427,0.144,0.1553,0.1513,0.1554,0.1385,0.1378,0.129,0.1302,0.1284,0.118,0.1425,0.1424,0.1423,0,0.0825,0.0834,0.085,0.094,0.0925,0.0999,0.1064,0.1093,0.1089,0.1104,0.1153,0.1197,0.1317,0.1359,0.1428,0.1458,0.1424,0.1469,0.1465,0.1247,0.1235,0.1163,0.1158,0.1411,0.1412,0.1413,0.1414,0,0.0836,0.0877,0.0933,0.0924,0.0961,0.1012,0.108,0.1089,0.1085,0.1168,0.1192,0.1239,0.1336,0.1336,0.1434,0.1439,0.1455,0.1455,0.1249,0.1239,0.1129,0.1109,0.1352,0.1352,0.1352,0.1352,0.1353,0,0.0882,0.0906,0.0937,0.0978,0.0978,0.0997,0.1098,0.1126,0.1151,0.1159,0.1225,0.1247,0.1339,0.1354,0.1384,0.1315,0.1385,0.1219,0.1195,0.12,0.1188,0.1298,0.1293,0.1348,0.1349,0.135,0.1351,0,0.0913,0.0933,0.0981,0.1041,0.1032,0.1045,0.111,0.1151,0.1203,0.1243,0.1284,0.1256,0.1295,0.1323,0.1348,0.1257,0.1245,0.1152,0.1143,0.1116,0.1032,0.1038,0.0893,0.0888,0.0883,0.0879,0.0875,0,0.0922,0.0968,0.1071,0.1072,0.1132,0.1144,0.1165,0.1189,0.122,0.1248,0.1231,0.1235,0.1203,0.1148,0.1067,0.1002,0.106,0.0868,0.0837,0.0988,0.0981,0.0995,0.1008,0.0798,0.0795,0.0792,0.0789,0,0.0949,0.1049,0.1094,0.1131,0.1177,0.1176,0.1206,0.1185,0.1244,0.1259,0.1239,0.1228,0.1087,0.0981,0.0833,0.0777,0.0906,0.0788,0.0977,0.0899,0.0885,0.0882,0.0901,0.0762,0.0765,0.0767,0.0768,0.0769,0.0998,0.1006,0.1154,0.1153,0.1177,0.1196,0.12,0.1211,0.1208,0.118,0.1162,0.1084,0.0891,0.0606,0.0591,0.0574,0.0564,0.0549,0.0566,0.0584,0.0573,0.0548,0.036,0.0361,0.0361,0.0361,0.0362,0,0.1032,0.1045,0.1115,0.113,0.1169,0.1207,0.1197,0.1162,0.1142,0.1104,0.1066,0.0739,0.0603,0.0506,0.0453,0.0369,0.0435,0.0346,0.0495,0.0518,0.0539,0.0535,0.0308,0.0309,0.0309,0.0309,0,0,0.1027,0.1061,0.1087,0.1103,0.1144,0.1144,0.1141,0.1075,0.0987,0.0865,0.077,0.0581,0.0476,0.0348,0.0308,0.0382,0.0461,0.0347,0.0386,0.0588,0.0612,0.0635,0.0648,0,0,0,0,0]},{"header":{"parameterUnit":"m.s-1","parameterCategory":2,"la1":30.2991,"la2":30.254,"lo1":-89.0895,"lo2":-89.0444,"dy":0.0017,"dx":0.0017,"nx":28,"ny":28,"refTime":"2023-08-06T21:00:00:Z","depth":"2","parameterNumber":3,"parameterNumberName":"V-component_of_CURRENTS"},"data":[0,0,0,0,0,0,0,0,0,0,0,0,0,0,0,0,0,0,0,0,0,0,0,0,0,0,0,0,0,0,0,0,0,0,0,0,0,0,0,0,0,0,0,0,0,0,0,0,0,0,0,0,0,0,0,0,0,0,0.0083,0.0081,0,-0.01,-0.0102,-0.0104,-0.0147,-0.0146,-0.0145,-0.0144,-0.0075,-0.0074,-0.0074,0,0,0,0,0,0,0,0,0,0,0,0,0,0.0122,0.0123,0.0084,0.0081,0.0079,-0.01,-0.0102,-0.0104,-0.0147,-0.0146,-0.0145,-0.0143,-0.0075,-0.0074,-0.0073,0,0,0,0,0,0,0,0,0,0,0,0,0,0.0041,0.0124,0.0084,0.0035,0.0029,-0.0099,-0.0102,-0.0105,-0.0148,-0.0146,-0.0144,-0.0143,-0.0076,-0.0074,-0.0073,-0.01,0,0,-0.007,-0.0069,0,0,0,0,0,0,0,0,0.0046,0.004,0.0045,0.0038,0.0031,-0.01,-0.0064,-0.0091,-0.0148,-0.0079,-0.0144,-0.0142,-0.0062,-0.0062,-0.0102,-0.0097,-0.0094,-0.007,-0.0069,-0.0068,-0.0068,0,0,0,0,0,0,0,0.0052,0.0046,0.0012,0.0042,0.0033,-0.0073,-0.0079,-0.0072,-0.0072,-0.0085,-0.0089,-0.0112,-0.0064,-0.0103,-0.01,-0.0093,-0.007,-0.0069,-0.0068,-0.0067,-0.0011,-0.0011,0,0,0,0,0,0,0.0085,0.0053,0.0018,0.0007,0.0041,-0.0073,-0.0081,-0.0059,-0.0078,-0.0082,-0.0113,-0.0114,-0.0106,-0.0101,-0.0097,-0.0039,-0.0068,-0.0067,-0.0067,-0.0012,-0.0011,-0.001,0,0,0,0,0,0,0.0087,0.0085,0.0025,0.0021,0.0006,-0.0074,-0.005,-0.0063,-0.0097,-0.0103,-0.0101,-0.0132,-0.0105,-0.0099,-0.0046,-0.0039,-0.0067,-0.0066,-0.0013,-0.0012,-0.0011,0.0022,0,0,0,0,0,0,0.009,0.0088,0.0085,0.0025,0.0008,0.0002,-0.0052,-0.0068,-0.0115,-0.0117,-0.0118,-0.0111,-0.0103,-0.0048,-0.0045,-0.0038,-0.0065,-0.0014,-0.0012,-0.0011,0.002,0.0024,0.0027,0,0,0,0,0,0.0093,0.0106,0.0088,0.008,0.0019,0.0003,-0.0013,-0.0069,-0.0117,-0.0101,-0.0103,-0.0111,-0.0037,-0.0045,-0.0043,-0.0035,-0.0015,-0.0013,-0.0011,0.0018,0.0023,0.0027,0,0,0,0,0,0,0.0092,0.0101,0.008,0.0086,0.0066,-0.0003,-0.0032,-0.0071,-0.0078,-0.0085,-0.0091,-0.0082,-0.0027,-0.0039,-0.0048,-0.0015,-0.0032,-0.003,-0.0011,-0.0006,-0.0003,0.0005,-0.0064,0,0,0,0,0,0.0096,0.0129,0.0105,0.0104,0.0096,0.0025,-0.0008,-0.0029,-0.0043,-0.0051,-0.0038,-0.0039,-0.0027,-0.0019,0.0011,0.002,0.0004,0.0024,0.0028,0.0031,0.0039,0.0016,0.0018,-0.0004,-0.0004,-0.0004,0,0,0.0052,0.0093,0.0078,0.0107,0.0067,0.0065,0.0012,-0.0011,-0.0028,-0.0036,-0.0029,-0.0004,-0.0013,0.002,0.0037,0.0013,0.0031,0.0033,0.0036,0.0043,0.0018,0.002,0.0021,-0.0003,-0.0003,-0.0004,0,0,0.0054,0.0064,0.0097,0.0088,0.0083,0.0078,0.0081,0.005,0.0025,0.0027,0.0028,0.0069,0.006,0.0082,0.0072,0.011,0.007,0.0101,0.0106,0.0083,0.0084,0.0085,0.0072,0.0071,0.0081,0.0081,0.0081,0,0.0018,0.0069,0.0091,0.0119,0.0097,0.0095,0.0094,0.0067,0.0063,0.0038,0.0048,0.0063,0.0084,0.0097,0.0119,0.012,0.0093,0.0087,0.0087,0.0087,0.0088,0.0074,0.0073,0.0082,0.0082,0.0082,0.0082,0,0.0008,0.0054,0.0068,0.0132,0.0123,0.0128,0.0111,0.0127,0.0104,0.0059,0.0081,0.0125,0.0128,0.0141,0.0135,0.0152,0.013,0.0111,0.0072,0.0092,0.0076,0.0074,0.0085,0.0084,0.0084,0.0083,0,0,-0.0037,0.0054,0.0056,0.009,0.0127,0.013,0.0131,0.0127,0.0112,0.0111,0.0085,0.0128,0.0141,0.0138,0.0165,0.0157,0.0156,0.0129,0.0127,0.0113,0.0098,0.0183,0.0189,0.0118,0.0118,0.0118,0.0087,0,-0.0034,0.0036,0.0073,0.0115,0.0148,0.015,0.0152,0.013,0.0127,0.0123,0.0107,0.013,0.013,0.0173,0.0152,0.0188,0.0151,0.0166,0.0085,0.0083,0.0154,0.0191,0.0124,0.01,0.0085,0.0085,0.0084,0,-0.0029,0.0029,0.0071,0.015,0.0151,0.0172,0.0193,0.0197,0.0169,0.0147,0.0145,0.0143,0.0177,0.0167,0.0167,0.0168,0.0124,0.0124,0.0121,0.0191,0.0167,0.0078,0.0097,0.0081,0.0082,0.0082,0.0082,0,-0.002,0.0051,0.0104,0.0102,0.0165,0.0175,0.0207,0.0196,0.0186,0.02,0.0204,0.0195,0.0235,0.0186,0.0181,0.0166,0.0154,0.0127,0.0146,0.0151,0.0079,0.0079,0.007,0.007,0.007,0.007,0.007,0,0.0022,0.0049,0.011,0.0129,0.015,0.0184,0.0226,0.0232,0.0243,0.0243,0.024,0.0258,0.0237,0.0218,0.0176,0.0182,0.0135,0.017,0.0157,0.0092,0.0094,0.0062,0.0062,0.0069,0.0069,0.0069,0.0069,0,0.0044,0.0075,0.014,0.0188,0.0185,0.0198,0.0231,0.0266,0.0285,0.0308,0.0319,0.0299,0.0328,0.0293,0.025,0.0217,0.0199,0.0178,0.0125,0.0111,0.0204,0.0205,0.0228,0.0231,0.0233,0.0235,0.0237,0,0.0063,0.0122,0.0175,0.0176,0.02,0.0225,0.0254,0.0274,0.0307,0.0333,0.0336,0.0366,0.0385,0.0378,0.0334,0.0299,0.0246,0.021,0.0198,0.0239,0.0224,0.0221,0.0219,0.0093,0.0094,0.0094,0.0094,0,0.0112,0.0149,0.0181,0.0212,0.0233,0.0263,0.03,0.031,0.0361,0.0392,0.0411,0.0437,0.0437,0.0395,0.0379,0.0334,0.0236,0.0224,0.0244,0.0101,0.012,0.0103,0.0103,0.0098,0.0097,0.0097,0.0097,0.0097,0.0138,0.0146,0.0222,0.0233,0.0262,0.0311,0.0342,0.0399,0.0447,0.051,0.0484,0.0518,0.036,0.0374,0.031,0.029,0.0321,0.0246,0.024,0.0234,0.0262,0.0289,0.0302,0.0302,0.0303,0.0304,0.0304,0,0.0178,0.0188,0.023,0.0255,0.0315,0.0329,0.0383,0.0429,0.0512,0.0563,0.0613,0.0432,0.0394,0.0288,0.0263,0.0242,0.0186,0.0216,0.0099,0.0098,0.0096,0.0112,0.0113,0.0113,0.0112,0.0112,0,0,0.0177,0.0214,0.0234,0.0306,0.0341,0.0406,0.0442,0.0508,0.0541,0.0591,0.0585,0.0558,0.0371,0.0254,0.0174,0.0174,0.0159,0.0174,0.0328,0.0198,0.0197,0.0113,0.0139,0,0,0,0,0]}],[{"header":{"parameterUnit":"m.s-1","parameterCategory":2,"la1":30.2991,"la2":30.254,"lo1":-89.0895,"lo2":-89.0444,"dy":0.0017,"dx":0.0017,"nx":28,"ny":28,"refTime":"2023-08-06T21:00:00:Z","depth":"4","parameterNumber":2,"parameterNumberName":"U-component_of_CURRENTS"},"data":[0,0,0,0,0,0,0,0,0,0,0,0,0,0,0,0,0,0,0,0,0,0,0,0,0,0,0,0,0,0,0,0,0,0,0,0,0,0,0,0,0,0,0,0,0,0,0,0,0,0,0,0,0,0,0,0,0,0,-0.0679,-0.0678,0,-0.0716,-0.0717,-0.0719,-0.0772,-0.0772,-0.0771,-0.0771,-0.0897,-0.0901,-0.0904,0,0,0,0,0,0,0,0,0,0,0,0,0,-0.066,-0.0661,-0.0679,-0.0678,-0.0677,-0.0716,-0.0717,-0.0719,-0.0772,-0.0772,-0.0771,-0.0771,-0.0896,-0.09,-0.0905,0,0,0,0,0,0,0,0,0,0,0,0,0,-0.0693,-0.0662,-0.0679,-0.0698,-0.07,-0.0715,-0.0717,-0.072,-0.0772,-0.0772,-0.0771,-0.0771,-0.0895,-0.09,-0.0905,-0.0949,0,0,-0.0922,-0.0924,0,0,0,0,0,0,0,0,-0.0691,-0.0695,-0.0696,-0.0697,-0.0698,-0.0727,-0.0756,-0.0796,-0.0772,-0.0759,-0.0771,-0.077,-0.084,-0.085,-0.0876,-0.0955,-0.0961,-0.0923,-0.0926,-0.0928,-0.093,0,0,0,0,0,0,0,-0.0688,-0.0694,-0.0708,-0.0695,-0.0696,-0.0706,-0.0712,-0.0765,-0.0814,-0.076,-0.0761,-0.0743,-0.0843,-0.0871,-0.0879,-0.0962,-0.0922,-0.0927,-0.0931,-0.0933,-0.1203,-0.1207,0,0,0,0,0,0,-0.0657,-0.0692,-0.0706,-0.0707,-0.0678,-0.0706,-0.0713,-0.0729,-0.0812,-0.0819,-0.0743,-0.0745,-0.0862,-0.0873,-0.0884,-0.1065,-0.0928,-0.0933,-0.0937,-0.1199,-0.1204,-0.1208,0,0,0,0,0,0,-0.0657,-0.0659,-0.0704,-0.0687,-0.0692,-0.0705,-0.0724,-0.073,-0.0798,-0.0795,-0.0807,-0.0808,-0.0862,-0.0876,-0.1018,-0.1065,-0.0936,-0.0941,-0.1195,-0.1201,-0.1206,-0.1348,0,0,0,0,0,0,-0.0657,-0.0661,-0.0689,-0.0686,-0.0691,-0.073,-0.0723,-0.0731,-0.0778,-0.0783,-0.0854,-0.0862,-0.0862,-0.101,-0.1023,-0.1071,-0.0945,-0.119,-0.1197,-0.1204,-0.1338,-0.1358,-0.1374,0,0,0,0,0,-0.0657,-0.0677,-0.0691,-0.0693,-0.0722,-0.073,-0.0737,-0.0751,-0.0782,-0.0816,-0.0912,-0.0863,-0.1062,-0.1021,-0.1034,-0.1084,-0.1186,-0.1195,-0.1204,-0.133,-0.1354,-0.1374,0,0,0,0,0,0,-0.0682,-0.0683,-0.0699,-0.0721,-0.0733,-0.0734,-0.0761,-0.0786,-0.0888,-0.0916,-0.0944,-0.0962,-0.1075,-0.1084,-0.1036,-0.1183,-0.1103,-0.1115,-0.1194,-0.1217,-0.1235,-0.1213,-0.095,0,0,0,0,0,-0.0699,-0.0723,-0.072,-0.0744,-0.0755,-0.078,-0.0797,-0.081,-0.0871,-0.0916,-0.0958,-0.103,-0.1116,-0.1176,-0.1212,-0.1334,-0.1282,-0.1366,-0.1384,-0.1399,-0.1393,-0.1413,-0.1431,-0.1237,-0.1237,-0.1237,0,0,-0.0707,-0.0715,-0.0727,-0.0752,-0.0773,-0.0792,-0.0795,-0.0828,-0.0869,-0.0916,-0.1017,-0.1084,-0.1158,-0.1273,-0.1324,-0.1299,-0.1423,-0.141,-0.1423,-0.1408,-0.1424,-0.1442,-0.1459,-0.1243,-0.1242,-0.1241,0,0,-0.0717,-0.0758,-0.0777,-0.0797,-0.0819,-0.083,-0.0852,-0.088,-0.0928,-0.1045,-0.1085,-0.1204,-0.1319,-0.1379,-0.1435,-0.1584,-0.1498,-0.1596,-0.1701,-0.1722,-0.1737,-0.175,-0.1675,-0.168,-0.163,-0.163,-0.1631,0,-0.0736,-0.076,-0.0783,-0.0806,-0.0827,-0.0855,-0.0886,-0.0934,-0.1007,-0.1075,-0.1088,-0.1304,-0.1359,-0.1529,-0.1601,-0.1617,-0.1596,-0.1614,-0.1743,-0.1754,-0.1765,-0.1685,-0.1689,-0.1638,-0.1637,-0.1636,-0.1636,0,-0.0746,-0.0783,-0.0799,-0.0843,-0.0876,-0.0906,-0.0951,-0.1013,-0.1087,-0.1141,-0.1311,-0.1418,-0.1563,-0.1596,-0.1672,-0.1798,-0.1743,-0.174,-0.1678,-0.1792,-0.1701,-0.1703,-0.1649,-0.1647,-0.1644,-0.1642,0,0,-0.0735,-0.0798,-0.0801,-0.0838,-0.0906,-0.0923,-0.1018,-0.1108,-0.1194,-0.1295,-0.1445,-0.1614,-0.1695,-0.1764,-0.1848,-0.1894,-0.1961,-0.1891,-0.1888,-0.1797,-0.1959,-0.174,-0.1718,-0.2007,-0.2009,-0.201,-0.1852,0,-0.0744,-0.0772,-0.0821,-0.0879,-0.0904,-0.0989,-0.1069,-0.1165,-0.1276,-0.142,-0.1569,-0.1738,-0.1754,-0.1892,-0.1942,-0.1963,-0.1979,-0.2,-0.1877,-0.1871,-0.1649,-0.1718,-0.2017,-0.1852,-0.1852,-0.1852,-0.1852,0,-0.0744,-0.0754,-0.0811,-0.0904,-0.0931,-0.1002,-0.1152,-0.1243,-0.1446,-0.1582,-0.1775,-0.1858,-0.2023,-0.2021,-0.2043,-0.2071,-0.2041,-0.2008,-0.2001,-0.1744,-0.1656,-0.1724,-0.1853,-0.1853,-0.1853,-0.1853,-0.1853,0,-0.0701,-0.0762,-0.081,-0.0841,-0.0944,-0.1042,-0.1143,-0.1311,-0.1427,-0.1737,-0.1835,-0.2011,-0.2106,-0.2122,-0.2056,-0.2093,-0.1998,-0.2024,-0.1759,-0.1739,-0.1916,-0.1905,-0.2014,-0.2014,-0.2015,-0.2015,-0.2016,0,-0.0693,-0.0724,-0.081,-0.084,-0.0924,-0.1049,-0.1207,-0.1364,-0.161,-0.1693,-0.1946,-0.1927,-0.2141,-0.2083,-0.2066,-0.1869,-0.1991,-0.1756,-0.1699,-0.1975,-0.1973,-0.1913,-0.1903,-0.2009,-0.201,-0.2012,-0.2013,0,-0.0652,-0.0702,-0.0766,-0.0881,-0.0922,-0.102,-0.1247,-0.1349,-0.16,-0.1727,-0.1838,-0.1919,-0.1786,-0.1864,-0.1828,-0.18,-0.1699,-0.1598,-0.1817,-0.1777,-0.1421,-0.1421,-0.1305,-0.1296,-0.1289,-0.1283,-0.1277,0,-0.0633,-0.0661,-0.0775,-0.0809,-0.0888,-0.1031,-0.1113,-0.1384,-0.143,-0.1549,-0.1519,-0.1511,-0.1509,-0.1272,-0.1365,-0.135,-0.1339,-0.1363,-0.1478,-0.1399,-0.1356,-0.1368,-0.1378,-0.1266,-0.1264,-0.1262,-0.126,0,-0.0584,-0.0658,-0.0697,-0.0749,-0.0847,-0.0889,-0.0985,-0.1039,-0.1236,-0.1423,-0.1225,-0.1217,-0.1028,-0.0998,-0.1052,-0.1009,-0.1426,-0.1286,-0.1303,-0.1412,-0.135,-0.1318,-0.1336,-0.1234,-0.1238,-0.124,-0.1242,0,-0.0561,-0.0573,-0.0626,-0.0688,-0.0731,-0.0694,-0.0801,-0.0768,-0.0861,-0.1013,-0.0826,-0.0819,-0.0856,-0.0789,-0.0742,-0.0805,-0.0811,-0.092,-0.0957,-0.0986,-0.0973,-0.0854,-0.0521,0,0,0,0,0,-0.0517,-0.0517,-0.054,-0.0552,-0.0574,-0.0583,-0.0634,-0.0724,-0.0848,-0.0694,-0.0819,-0.0628,-0.0602,-0.0511,-0.0512,-0.058,-0.083,-0.0584,-0.0978,-0.1093,-0.1122,-0.1146,0,0,0,0,0,0,-0.0485,-0.0495,-0.0499,-0.0393,-0.0376,-0.0347,-0.0393,-0.0489,-0.0364,-0.0511,-0.0427,-0.0592,-0.0489,-0.0573,-0.0479,-0.0495,-0.0742,-0.0613,-0.0613,-0.1076,-0.1103,-0.1126,-0.1162,0,0,0,0,0]},{"header":{"parameterUnit":"m.s-1","parameterCategory":2,"la1":30.2991,"la2":30.254,"lo1":-89.0895,"lo2":-89.0444,"dy":0.0017,"dx":0.0017,"nx":28,"ny":28,"refTime":"2023-08-06T21:00:00:Z","depth":"4","parameterNumber":3,"parameterNumberName":"V-component_of_CURRENTS"},"data":[0,0,0,0,0,0,0,0,0,0,0,0,0,0,0,0,0,0,0,0,0,0,0,0,0,0,0,0,0,0,0,0,0,0,0,0,0,0,0,0,0,0,0,0,0,0,0,0,0,0,0,0,0,0,0,0,0,0,-0.0164,-0.0164,0,-0.0167,-0.0168,-0.0168,-0.0196,-0.0196,-0.0197,-0.0197,-0.0155,-0.0154,-0.0153,0,0,0,0,0,0,0,0,0,0,0,0,0,-0.0175,-0.0175,-0.0164,-0.0164,-0.0163,-0.0167,-0.0168,-0.0168,-0.0196,-0.0196,-0.0197,-0.0197,-0.0156,-0.0154,-0.0153,0,0,0,0,0,0,0,0,0,0,0,0,0,-0.0178,-0.0175,-0.0164,-0.0174,-0.0174,-0.0167,-0.0168,-0.0168,-0.0196,-0.0196,-0.0197,-0.0197,-0.0156,-0.0155,-0.0153,-0.0135,0,0,-0.0147,-0.0146,0,0,0,0,0,0,0,0,-0.0178,-0.0179,-0.0173,-0.0173,-0.0173,-0.0177,-0.0156,-0.0153,-0.0196,-0.0194,-0.0197,-0.0197,-0.0155,-0.0153,-0.0161,-0.0133,-0.0131,-0.0147,-0.0145,-0.0145,-0.0144,0,0,0,0,0,0,0,-0.0178,-0.0179,-0.0171,-0.0172,-0.0172,-0.0175,-0.0176,-0.0156,-0.0176,-0.0194,-0.0195,-0.0186,-0.0155,-0.0163,-0.016,-0.013,-0.0147,-0.0145,-0.0144,-0.0143,-0.0123,-0.0124,0,0,0,0,0,0,-0.0167,-0.0178,-0.0171,-0.017,-0.0171,-0.0174,-0.0176,-0.018,-0.0177,-0.0176,-0.0186,-0.0187,-0.0166,-0.0162,-0.0159,-0.0161,-0.0145,-0.0143,-0.0142,-0.0123,-0.0124,-0.0124,0,0,0,0,0,0,-0.0167,-0.0167,-0.017,-0.0169,-0.0169,-0.0173,-0.0177,-0.018,-0.0182,-0.017,-0.0169,-0.0184,-0.0166,-0.0161,-0.0175,-0.0158,-0.0142,-0.014,-0.0122,-0.0123,-0.0124,-0.0149,0,0,0,0,0,0,-0.0168,-0.0167,-0.0175,-0.0169,-0.0169,-0.0182,-0.0177,-0.0179,-0.0174,-0.0176,-0.0168,-0.0166,-0.0166,-0.0178,-0.0173,-0.0155,-0.0139,-0.0121,-0.0123,-0.0124,-0.0148,-0.0151,-0.0154,0,0,0,0,0,-0.0168,-0.0178,-0.0176,-0.0175,-0.0177,-0.0182,-0.0184,-0.019,-0.0173,-0.0189,-0.0196,-0.0165,-0.0181,-0.0178,-0.0171,-0.0153,-0.0121,-0.0122,-0.0124,-0.0146,-0.0151,-0.0154,0,0,0,0,0,0,-0.0187,-0.0181,-0.0178,-0.0186,-0.0188,-0.0185,-0.0193,-0.0182,-0.0198,-0.0198,-0.0183,-0.0183,-0.0196,-0.0171,-0.0167,-0.0153,-0.014,-0.0141,-0.016,-0.0163,-0.0166,-0.0143,-0.0137,0,0,0,0,0,-0.0192,-0.0199,-0.0192,-0.0198,-0.0198,-0.019,-0.019,-0.0193,-0.0196,-0.0203,-0.0197,-0.019,-0.0195,-0.0179,-0.0193,-0.0169,-0.0119,-0.0152,-0.0155,-0.0157,-0.0136,-0.0051,-0.0043,-0.0129,-0.0129,-0.0129,0,0,-0.0205,-0.0195,-0.0204,-0.0202,-0.0202,-0.0222,-0.0194,-0.0198,-0.0216,-0.0193,-0.022,-0.0214,-0.0202,-0.021,-0.0205,-0.018,-0.0115,-0.0159,-0.0162,-0.0138,-0.0052,-0.0043,-0.0035,-0.013,-0.013,-0.013,0,0,-0.0224,-0.0221,-0.0234,-0.0243,-0.0238,-0.0239,-0.0235,-0.0234,-0.024,-0.0253,-0.0253,-0.0247,-0.0233,-0.0234,-0.0225,-0.0244,-0.0156,-0.0224,-0.0188,-0.0108,-0.0099,-0.009,-0.0043,-0.003,-0.0197,-0.0197,-0.0197,0,-0.0237,-0.0253,-0.024,-0.0256,-0.0272,-0.0245,-0.0276,-0.0277,-0.0283,-0.0292,-0.027,-0.0269,-0.025,-0.0254,-0.0242,-0.025,-0.0179,-0.0176,-0.0108,-0.0098,-0.0089,-0.0042,-0.0027,-0.0199,-0.0198,-0.0198,-0.0198,0,-0.0269,-0.0291,-0.0297,-0.0317,-0.0336,-0.0353,-0.0356,-0.037,-0.0352,-0.0347,-0.0353,-0.0329,-0.0302,-0.0297,-0.0255,-0.0186,-0.0154,-0.0143,-0.0091,-0.0081,-0.0034,-0.0018,-0.0201,-0.02,-0.02,-0.0199,0,0,-0.0279,-0.0315,-0.0321,-0.035,-0.0372,-0.0391,-0.0425,-0.0449,-0.0472,-0.044,-0.0438,-0.0409,-0.0342,-0.0324,-0.0274,-0.0182,-0.0055,-0.009,-0.0085,-0.0031,0.014,-0.0022,-0.002,0.0006,0.0009,0.0012,0.0137,0,-0.0309,-0.0352,-0.0372,-0.0438,-0.0465,-0.0483,-0.0523,-0.0543,-0.0541,-0.0532,-0.0465,-0.0432,-0.0365,-0.0305,-0.021,-0.0086,-0.0006,-0.0089,0.0113,0.0118,-0.0017,-0.0006,0.0022,0.015,0.0153,0.0156,0.0158,0,-0.0337,-0.0362,-0.043,-0.0501,-0.0519,-0.0569,-0.0637,-0.0663,-0.0653,-0.0617,-0.0553,-0.0478,-0.0327,-0.0266,-0.0039,-0.0069,0.0054,0.0131,0.0138,0.0015,-0.0014,0.0144,0.0188,0.0186,0.0183,0.0181,0.018,0,-0.0343,-0.0409,-0.0466,-0.0492,-0.0566,-0.062,-0.0659,-0.0701,-0.0716,-0.0634,-0.0598,-0.0451,-0.0346,-0.0149,0.0037,0.0062,0.0255,0.0289,0.022,0.0209,0.0334,0.0324,0.043,0.0429,0.0429,0.0429,0.0428,0,-0.0367,-0.0417,-0.0481,-0.0518,-0.0607,-0.0646,-0.0736,-0.0745,-0.0738,-0.0731,-0.0606,-0.0546,-0.0289,-0.016,0.0035,0.016,0.0259,0.023,0.0237,0.0312,0.0299,0.0344,0.0333,0.0434,0.0432,0.0432,0.0431,0,-0.038,-0.0415,-0.0488,-0.0576,-0.0617,-0.068,-0.0773,-0.0824,-0.0788,-0.0762,-0.0693,-0.0562,-0.0393,-0.0244,0.0028,0.0106,0.0268,0.0267,0.03,0.0306,0.0181,0.0167,0.0261,0.0257,0.0253,0.025,0.0247,0,-0.0395,-0.0426,-0.0529,-0.0589,-0.0646,-0.0738,-0.0811,-0.0828,-0.0822,-0.0773,-0.0715,-0.0616,-0.0515,-0.0269,-0.0115,0.0121,0.0131,0.022,0.0248,0.017,0.0168,0.016,0.0151,0.0241,0.024,0.0239,0.0238,0,-0.0418,-0.0451,-0.0505,-0.0603,-0.0701,-0.0788,-0.0844,-0.083,-0.081,-0.0814,-0.068,-0.0585,-0.0499,-0.0302,-0.0204,-0.0011,0.0193,0.0182,0.0193,0.022,0.0146,0.0146,0.0142,0.0225,0.0227,0.0228,0.0229,0,-0.0436,-0.0467,-0.0518,-0.0604,-0.0716,-0.0763,-0.0817,-0.0788,-0.0776,-0.0688,-0.0661,-0.0564,-0.0508,-0.0379,-0.0236,-0.0136,-0.0078,0.003,0.0051,0.0067,-0.0061,-0.0187,-0.0197,0,0,0,0,0,-0.0444,-0.0452,-0.0521,-0.0591,-0.0693,-0.0739,-0.0797,-0.0818,-0.0803,-0.0704,-0.0663,-0.0565,-0.0441,-0.0381,-0.0301,-0.0326,-0.0084,-0.0231,0.0048,0.015,0.0166,0.0029,0,0,0,0,0,0,-0.0455,-0.0491,-0.0488,-0.0537,-0.0585,-0.0673,-0.0709,-0.0716,-0.0616,-0.0606,-0.0524,-0.0531,-0.0399,-0.0472,-0.0287,-0.0273,-0.008,-0.0189,-0.0187,0.0142,0.0156,0.0168,0.0033,0,0,0,0,0]}]]